CDT,Max TemperatureF,Mean TemperatureF,Min TemperatureF,Max Dew PointF,MeanDew PointF,Min DewpointF,Max Humidity, Mean Humidity, Min Humidity, Max Sea Level PressureIn, Mean Sea Level PressureIn, Min Sea Level PressureIn, Max VisibilityMiles, Mean VisibilityMiles, Min VisibilityMiles, Max Wind SpeedMPH, Mean Wind SpeedMPH, Max Gust SpeedMPH,PrecipitationIn, CloudCover, Events, WindDirDegrees
2011-9-1,93,82,72,78,71,66,94,77,46,29.78,29.72,29.69,9,6,2,16,6,24,0.01,0,,168
2011-9-2,89,80,70,72,70,66,94,82,55,29.93,29.84,29.72,10,8,1,23,8,39,0.10,3,Rain-Thunderstorm,62
2011-9-3,75,66,57,70,65,53,97,86,55,30.10,29.91,29.79,10,6,0,21,7,30,0.12,5,Fog-Rain-Thunderstorm,334
2011-9-4,73,62,52,53,50,44,89,66,37,30.21,30.17,30.11,10,10,10,14,7,20,0.01,0,,337
2011-9-5,72,58,45,54,48,43,93,74,36,30.25,30.18,30.09,10,10,8,7,3,,0.00,0,,253
2011-9-6,73,58,44,56,49,42,97,75,44,30.19,30.16,30.13,10,9,2,9,3,,0.01,0,,140
2011-9-7,78,62,46,59,51,44,96,78,43,30.29,30.24,30.18,10,8,1,7,1,,0.00,0,,177
2011-9-8,81,64,50,59,53,48,100,79,45,30.32,30.25,30.14,10,7,0,10,6,,0.01,1,Fog,354
2011-9-9,84,70,57,61,58,54,93,72,42,30.13,30.04,29.95,10,10,8,15,7,23,0.00,2,,341
2011-9-10,84,69,54,61,56,53,97,73,34,30.07,30.02,29.98,10,8,2,6,4,,0.00,0,,340
2011-9-11,88,71,55,64,58,53,93,72,38,30.08,30.02,29.96,10,9,7,9,4,,0.01,0,,190
2011-9-12,93,75,59,67,60,56,90,66,33,29.96,29.87,29.79,10,9,7,16,7,24,0.00,0,,206
2011-9-13,75,64,53,56,50,45,90,66,37,30.09,30.04,29.94,10,10,9,10,7,16,0.00,0,,348
2011-9-14,62,50,39,51,37,27,84,58,27,30.38,30.26,30.11,10,10,10,22,9,26,0.00,4,Rain,358
2011-9-15,60,48,36,45,35,30,86,66,35,30.46,30.38,30.28,10,10,8,9,5,,0.02,2,Rain,133
2011-9-16,55,50,46,48,45,41,93,79,66,30.28,30.20,30.14,10,10,5,13,6,20,0.07,8,Rain,132
2011-9-17,57,54,51,54,51,48,96,91,83,30.14,30.07,30.01,10,4,1,15,10,21,0.00,8,,131
2011-9-18,73,60,48,59,55,47,100,89,64,30.02,29.98,29.94,10,4,0,8,4,,0.03,7,Fog-Rain,151
2011-9-19,82,63,44,52,47,42,97,62,26,30.09,30.02,29.90,10,6,0,9,2,,0.01,0,Fog,188
2011-9-20,75,64,52,52,46,36,86,56,24,30.03,29.91,29.81,10,10,10,16,8,25,0.00,0,,253
2011-9-21,72,56,42,46,43,39,89,65,39,30.17,30.08,30.01,10,10,10,20,10,28,0.00,1,,290
2011-9-22,68,52,37,43,39,34,93,69,30,30.22,30.16,30.11,10,10,6,9,4,,0.00,0,,321
2011-9-23,70,52,34,43,36,32,92,62,26,30.19,30.11,30.01,10,10,6,8,4,,0.00,0,,3
2011-9-24,73,54,36,46,40,33,93,63,31,30.01,29.96,29.90,10,10,9,8,2,16,0.00,0,,104
2011-9-25,70,52,36,45,39,34,93,70,31,30.00,29.94,29.88,10,9,6,7,3,,0.00,0,,353
2011-9-26,73,55,37,48,43,35,89,68,37,29.96,29.90,29.83,10,10,9,17,6,24,0.00,0,,334
2011-9-27,82,65,48,55,48,45,89,65,31,29.97,29.91,29.87,10,9,6,17,7,17,0.00,0,,330
2011-9-28,90,66,43,51,46,40,93,61,19,29.89,29.84,29.78,10,9,5,7,2,,0.00,0,,155
2011-9-29,75,64,53,50,40,30,83,45,19,30.21,30.04,29.81,10,10,8,28,11,39,0.00,1,,325
2011-9-30,73,56,37,43,36,27,86,58,19,30.30,30.23,30.17,10,10,9,10,7,,0.00,0,,327